K6PKL-2 Weather Reports


Display with metric or nautical units.
time (UTC)temp
F
wind
direction
speed
MPH
gust
MPH
rain 1hr
in
rain 24hr
in
rain mn
in
humidity
%
barometer
mb
20260503211308 70 348 0.0 4.0 0.00 0.00 0.00 59 1016.8
20260503210108 70 275 0.0 8.0 0.00 0.00 0.00 59 1016.7
20260503205708 70 344 2.0 8.0 0.00 0.00 0.00 59 1016.7
20260503205308 70 33 8.0 8.0 0.00 0.00 0.00 59 1016.5
20260503204907 70 335 7.0 11.0 0.00 0.00 0.00 59 1016.7
20260503204107 70 288 0.0 8.0 0.00 0.00 0.00 59 1016.7
20260503203707 70 346 0.0 7.0 0.00 0.00 0.00 59 1016.6
20260503203307 70 216 0.0 5.0 0.00 0.00 0.00 59 1016.6
20260503201706 70 238 3.0 4.0 0.00 0.00 0.00 60 1016.6
20260503201306 70 315 0.0 3.0 0.00 0.00 0.00 61 1016.7
20260503200906 70 209 6.0 10.0 0.00 0.00 0.00 61 1016.5
20260503200506 69 22 0.0 10.0 0.00 0.00 0.00 61 1016.5
20260503200106 69 297 0.0 7.0 0.00 0.00 0.00 61 1016.7
20260503195706 69 27 0.0 6.0 0.00 0.00 0.00 62 1016.7
20260503195305 69 270 0.0 6.0 0.00 0.00 0.00 62 1016.7
20260503194905 69 9 4.0 7.0 0.00 0.00 0.00 61 1016.6
20260503194505 69 231 0.0 6.0 0.00 0.00 0.00 63 1016.8
20260503194105 69 299 0.0 6.0 0.00 0.00 0.00 62 1016.8
20260503193305 68 15 0.0 6.0 0.00 0.00 0.00 62 1016.8
20260503192504 68 326 3.0 3.0 0.00 0.00 0.00 62 1016.8
20260503192104 68 278 0.0 7.0 0.00 0.00 0.00 63 1016.9
20260503191704 68 225 0.0 7.0 0.00 0.00 0.00 64 1017.1
20260503191304 68 212 0.0 8.0 0.00 0.00 0.00 64 1016.9
20260503190505 68 282 0.0 1.0 0.00 0.00 0.00 65 1017.1
20260503190104 67 328 0.0 14.0 0.00 0.00 0.00 65 1017.0
20260503185704 67 220 0.0 0.0 0.00 0.00 0.00 65 1017.1
20260503185305 67 229 0.0 5.0 0.00 0.00 0.00 66 1017.0
20260503184904 67 225 0.0 5.0 0.00 0.00 0.00 67 1017.0
20260503184504 66 222 5.0 5.0 0.00 0.00 0.00 66 1017.1
20260503183303 66 258 0.0 0.0 0.00 0.00 0.00 67 1017.1
20260503182903 65 222 0.0 0.0 0.00 0.00 0.00 68 1017.1
20260503182503 65 252 0.0 0.0 0.00 0.00 0.00 67 1017.2
20260503182103 65 328 0.0 0.0 0.00 0.00 0.00 67 1017.1
20260503181703 65 45 0.0 7.0 0.00 0.00 0.00 68 1017.1
20260503181303 65 2 7.0 7.0 0.00 0.00 0.00 68 1017.2
20260503180903 64 328 0.0 0.0 0.00 0.00 0.00 68 1017.2
20260503175702 64 220 0.0 10.0 0.00 0.00 0.00 70 1017.2
20260503175304 63 315 0.0 5.0 0.00 0.00 0.00 71 1017.2
20260503174902 63 11 0.0 4.0 0.00 0.00 0.00 71 1017.2
20260503174502 63 348 0.0 0.0 0.00 0.00 0.00 72 1017.2
20260503174102 62 333 0.0 0.0 0.00 0.00 0.00 72 1017.3
20260503173301 62 279 0.0 0.0 0.00 0.00 0.00 73 1017.2
20260503172501 62 6 0.0 4.0 0.00 0.00 0.00 74 1017.3
20260503172101 61 303 0.0 0.0 0.00 0.00 0.00 75 1017.2
20260503171301 61 281 0.0 0.0 0.00 0.00 0.00 75 1017.2
20260503170500 61 315 0.0 5.0 0.00 0.00 0.00 75 1017.2
20260503150853 57 6 0.0 5.0 0.00 0.00 0.00 82 1016.5
20260503150453 57 315 0.0 0.0 0.00 0.00 0.00 81 1016.5
20260503131249 56 315 0.0 0.0 0.00 0.00 0.00 82 1015.1
20260503130849 56 342 0.0 0.0 0.00 0.00 0.00 83 1015.0
20260503130449 56 315 0.0 1.0 0.00 0.00 0.00 82 1014.9
20260503110444 57 289 0.0 5.0 0.00 0.00 0.00 82 1014.7
20260503090440 58 49 2.0 3.0 0.00 0.00 0.00 79 1014.7
20260503081238 58 0 3.0 4.0 0.00 0.00 0.00 78 1015.2
20260503080838 58 346 1.0 4.0 0.00 0.00 0.00 78 1015.2
20260503080438 58 335 3.0 6.0 0.00 0.00 0.00 78 1015.2
20260503072837 58 344 4.0 6.0 0.00 0.00 0.00 77 1015.3
20260503072437 58 335 5.0 5.0 0.00 0.00 0.00 77 1015.5
20260503072037 58 328 2.0 4.0 0.00 0.00 0.00 77 1015.2
20260503071636 58 15 2.0 5.0 0.00 0.00 0.00 77 1015.4
20260503071237 58 357 5.0 6.0 0.00 0.00 0.00 77 1015.3
20260503070435 59 351 3.0 7.0 0.00 0.00 0.00 76 1015.3
20260503054832 60 0 3.0 5.0 0.00 0.00 0.00 74 1015.7
20260503054432 60 320 4.0 5.0 0.00 0.00 0.00 74 1015.8
20260503054032 60 292 3.0 8.0 0.00 0.00 0.00 73 1015.8
20260503053632 60 310 7.0 8.0 0.00 0.00 0.00 73 1015.8
20260503053232 60 261 3.0 9.0 0.00 0.00 0.00 73 1015.7
20260503052832 60 264 2.0 7.0 0.00 0.00 0.00 73 1015.8
20260503052031 61 308 1.0 8.0 0.00 0.00 0.00 72 1015.7
20260503051631 61 265 3.0 5.0 0.00 0.00 0.00 72 1015.7
20260503051231 61 299 4.0 6.0 0.00 0.00 0.00 72 1015.7
20260503050831 61 99 1.0 6.0 0.00 0.00 0.00 72 1015.7
20260503050431 61 306 6.0 8.0 0.00 0.00 0.00 72 1015.6
20260503045631 61 274 2.0 7.0 0.00 0.00 0.00 71 1015.7
20260503045230 62 240 3.0 6.0 0.00 0.00 0.00 71 1015.7
20260503044830 62 337 2.0 7.0 0.00 0.00 0.00 70 1015.7
20260503044430 62 249 3.0 6.0 0.00 0.00 0.00 70 1015.6
20260503044030 62 243 3.0 7.0 0.00 0.00 0.00 70 1015.7
20260503043630 62 225 5.0 8.0 0.00 0.00 0.00 70 1015.5
20260503043230 63 281 6.0 7.0 0.00 0.00 0.00 70 1015.4
20260503042830 63 218 4.0 11.0 0.00 0.00 0.00 69 1015.4
20260503042429 63 241 6.0 12.0 0.00 0.00 0.00 69 1015.4
20260503042029 63 288 4.0 7.0 0.00 0.00 0.00 68 1015.3
20260503041629 63 301 5.0 10.0 0.00 0.00 0.00 68 1015.3
20260503041229 64 237 3.0 9.0 0.00 0.00 0.00 68 1015.3
20260503040829 64 317 2.0 9.0 0.00 0.00 0.00 68 1015.1
20260503040029 64 237 6.0 9.0 0.00 0.00 0.00 68 1015.3
20260503035228 65 303 4.0 7.0 0.00 0.00 0.00 67 1015.0
20260503034428 65 265 2.0 8.0 0.00 0.00 0.00 67 1015.0
20260503034028 65 0 4.0 7.0 0.00 0.00 0.00 67 1014.9
20260503033628 65 261 2.0 5.0 0.00 0.00 0.00 67 1015.0
20260503033228 66 22 2.0 5.0 0.00 0.00 0.00 66 1014.8
20260503032827 66 272 3.0 7.0 0.00 0.00 0.00 66 1015.0
20260503032027 66 247 3.0 7.0 0.00 0.00 0.00 65 1014.8
20260503031627 66 15 3.0 6.0 0.00 0.00 0.00 65 1014.8
20260503031227 67 272 6.0 7.0 0.00 0.00 0.00 64 1014.7
20260503030827 67 249 4.0 7.0 0.00 0.00 0.00 65 1014.7
20260503030427 67 234 4.0 6.0 0.00 0.00 0.00 65 1014.7
20260503030026 67 339 5.0 5.0 0.00 0.00 0.00 64 1014.7
20260503025626 67 0 7.0 8.0 0.00 0.00 0.00 64 1014.6
20260503025226 68 315 1.0 7.0 0.00 0.00 0.00 64 1014.6
20260503024827 68 328 5.0 8.0 0.00 0.00 0.00 64 1014.5
20260503024426 68 315 4.0 4.0 0.00 0.00 0.00 64 1014.5
20260503024026 68 45 2.0 9.0 0.00 0.00 0.00 63 1014.5
20260503023626 69 315 3.0 4.0 0.00 0.00 0.00 63 1014.5
20260503023226 69 312 5.0 8.0 0.00 0.00 0.00 63 1014.5
20260503022825 69 315 1.0 6.0 0.00 0.00 0.00 63 1014.5
20260503022025 69 301 2.0 6.0 0.00 0.00 0.00 62 1014.3
20260503021625 69 265 3.0 8.0 0.00 0.00 0.00 62 1014.3
20260503020826 70 279 4.0 7.0 0.00 0.00 0.00 61 1014.2
20260503020424 70 308 6.0 8.0 0.00 0.00 0.00 61 1014.2
20260503020024 70 315 4.0 7.0 0.00 0.00 0.00 61 1014.2
20260503015624 71 0 5.0 9.0 0.00 0.00 0.00 60 1014.3
20260503015224 71 211 4.0 8.0 0.00 0.00 0.00 59 1014.4
20260503014825 71 315 5.0 8.0 0.00 0.00 0.00 59 1014.2
20260503014424 72 301 8.0 8.0 0.00 0.00 0.00 59 1014.3
20260503014024 72 355 6.0 9.0 0.00 0.00 0.00 59 1014.3
20260503013624 72 330 3.0 6.0 0.00 0.00 0.00 58 1014.3
20260503012824 73 321 4.0 7.0 0.00 0.00 0.00 58 1014.3
20260503012423 73 344 5.0 8.0 0.00 0.00 0.00 59 1014.2
20260503012023 73 0 2.0 7.0 0.00 0.00 0.00 58 1014.3
20260503011623 73 290 7.0 7.0 0.00 0.00 0.00 59 1014.3
20260503011223 74 351 2.0 6.0 0.00 0.00 0.00 58 1014.3
20260503010822 74 342 3.0 6.0 0.00 0.00 0.00 59 1014.3
20260503010422 74 292 3.0 7.0 0.00 0.00 0.00 58 1014.2
20260503005622 74 285 2.0 4.0 0.00 0.00 0.00 59 1014.3
20260503005222 74 310 4.0 8.0 0.00 0.00 0.00 58 1014.3
20260503004822 74 319 5.0 6.0 0.00 0.00 0.00 58 1014.3
20260503004422 74 330 6.0 10.0 0.00 0.00 0.00 58 1014.3
20260503004022 74 297 1.0 8.0 0.00 0.00 0.00 59 1014.4
20260503003621 74 326 4.0 7.0 0.00 0.00 0.00 58 1014.4
20260503002821 74 330 3.0 7.0 0.00 0.00 0.00 58 1014.3
20260503002421 74 324 3.0 5.0 0.00 0.00 0.00 57 1014.3
20260503001221 74 297 1.0 7.0 0.00 0.00 0.00 57 1014.3
20260503000020 74 252 3.0 9.0 0.00 0.00 0.00 58 1014.3
20260502235620 74 337 9.0 9.0 0.00 0.00 0.00 58 1014.3
20260502235220 74 319 3.0 7.0 0.00 0.00 0.00 57 1014.3
20260502234820 74 220 4.0 9.0 0.00 0.00 0.00 58 1014.4
20260502233620 74 283 1.0 7.0 0.00 0.00 0.00 58 1014.5
20260502233219 74 337 5.0 7.0 0.00 0.00 0.00 58 1014.6
20260502232819 74 297 7.0 10.0 0.00 0.00 0.00 58 1014.6
20260502232419 74 0 9.0 10.0 0.00 0.00 0.00 57 1014.6
20260502232019 74 339 4.0 7.0 0.00 0.00 0.00 57 1014.6
20260502231619 74 11 5.0 7.0 0.00 0.00 0.00 57 1014.6
20260502231218 74 357 4.0 9.0 0.00 0.00 0.00 57 1014.7
20260502230818 74 330 5.0 7.0 0.00 0.00 0.00 57 1014.9
20260502230419 74 355 4.0 9.0 0.00 0.00 0.00 57 1014.8
20260502230229 71 256 1.0 4.0 0.00 0.00 0.00 57 1016.6
20260502225619 74 141 0.0 6.0 0.00 0.00 0.00 58 1015.1
20260502224818 74 275 3.0 8.0 0.00 0.00 0.00 58 1015.2
20260502224418 74 5 6.0 7.0 0.00 0.00 0.00 58 1015.3
20260502224017 74 339 3.0 5.0 0.00 0.00 0.00 58 1015.4
20260502223617 74 236 4.0 5.0 0.00 0.00 0.00 57 1015.4
20260502223217 74 5 3.0 6.0 0.00 0.00 0.00 58 1015.5
20260502222817 74 319 4.0 4.0 0.00 0.00 0.00 58 1015.6
20260502222417 74 255 2.0 7.0 0.00 0.00 0.00 58 1015.6
20260502222017 74 348 2.0 4.0 0.00 0.00 0.00 58 1015.7
20260502221616 73 218 3.0 6.0 0.00 0.00 0.00 58 1015.7
20260502221216 74 301 6.0 6.0 0.00 0.00 0.00 58 1015.8
20260502220816 74 301 4.0 7.0 0.00 0.00 0.00 58 1015.9
20260502220016 74 327 3.0 6.0 0.00 0.00 0.00 58 1016.0
20260502215617 74 238 4.0 6.0 0.00 0.00 0.00 58 1015.9
20260502215216 74 252 4.0 6.0 0.00 0.00 0.00 58 1016.0
20260502214815 74 281 5.0 6.0 0.00 0.00 0.00 58 1016.1
20260502214415 74 267 6.0 6.0 0.00 0.00 0.00 58 1016.1
20260502214016 74 252 6.0 6.0 0.00 0.00 0.00 58 1016.1
20260502213215 74 22 4.0 10.0 0.00 0.00 0.00 59 1016.1
20260502212815 74 308 3.0 5.0 0.00 0.00 0.00 59 1016.2
20260502212415 74 348 6.0 7.0 0.00 0.00 0.00 59 1016.4
20260502212014 73 344 5.0 8.0 0.00 0.00 0.00 59 1016.2